Location: Barcelona
(41.3830°N, 2.1830°E)
Time: 21:08:29
(UTC+01:00)

ISS - Pass Details

Date: 28 March 2017
Orbit: 399 x 409 km, 51.6° (Epoch: 24 March)

Event Time Altitude Azimuth Distance (km) Brightness Sun altitude
Rises 22:30:15 0° 259° (W) 2,306 0.7 -25.4°
Reaches altitude 10° 22:32:28 10° 271° (W) 1,452 -0.3 -25.7°
Enters shadow 22:34:29 26° 303° (WNW) 842 -1.6 -26.0°
